IBE6673 LEMD-SVMI

Flight info

Callsign IBE6673
Flight time N/A
Altitude 31000
Route BARDI DCT ABETO DCT ERPES/M080F300 DCT 39N020W/M080F320 35N030W 29N040W/M080F340 23N050W 20N055W DCT ELJEZ/N0472F340 UN669 ONGAL DCT MASPA DCT OPUTU DCT KOMPU NETSI1
Aircraft A346/H-SDE2E3FGHIJ3J4J5M1RWXY/LB1D1

Departure

Time N/A
Airport Adolfo Suárez Madrid–Barajas Airport (LEMD)

Arrival

Time 2026-05-07 21:13
Airport Maiquetía Simón Bolívar International Airport (SVMI)
Time Latitude Longitude Altitude Speed Heading
2026-05-07 19:40 16.50169 -59.00581 38000 ft 430 kts 233°
2026-05-07 19:40 16.46466 -59.05463 37998 ft 431 kts 233°
2026-05-07 19:41 16.42749 -59.10362 37996 ft 431 kts 233°
2026-05-07 19:41 16.39046 -59.15235 37995 ft 432 kts 233°
2026-05-07 19:42 16.35325 -59.20129 37997 ft 431 kts 233°
2026-05-07 19:42 16.31589 -59.25038 37998 ft 432 kts 233°
2026-05-07 19:43 16.27864 -59.29929 37996 ft 431 kts 233°
2026-05-07 19:43 16.24140 -59.34815 37997 ft 432 kts 233°
2026-05-07 19:44 16.20419 -59.39688 37999 ft 433 kts 233°
2026-05-07 19:44 16.16669 -59.44604 38000 ft 433 kts 233°
2026-05-07 19:45 16.12929 -59.49521 38003 ft 433 kts 233°
2026-05-07 19:45 16.09220 -59.54391 38006 ft 433 kts 233°
2026-05-07 19:46 16.05483 -59.59288 38007 ft 433 kts 233°
2026-05-07 19:46 16.01724 -59.64206 38008 ft 433 kts 233°
2026-05-07 19:47 15.97956 -59.69131 38007 ft 434 kts 232°
2026-05-07 19:47 15.94220 -59.74011 38015 ft 433 kts 232°
2026-05-07 19:48 15.90463 -59.78912 38019 ft 433 kts 232°
2026-05-07 19:48 15.86712 -59.83805 38006 ft 433 kts 233°
2026-05-07 19:49 15.82966 -59.88689 37999 ft 434 kts 232°
2026-05-07 19:49 15.79216 -59.93574 38001 ft 433 kts 233°
2026-05-07 19:50 15.75464 -59.98459 37999 ft 434 kts 232°
2026-05-07 19:50 15.71682 -60.03380 37992 ft 434 kts 232°
2026-05-07 19:51 15.67919 -60.08273 37992 ft 434 kts 232°
2026-05-07 19:51 15.64153 -60.13163 37995 ft 434 kts 232°
2026-05-07 19:52 15.60397 -60.18042 37991 ft 434 kts 232°
2026-05-07 19:52 15.56620 -60.22940 37998 ft 434 kts 232°
2026-05-07 19:53 15.52859 -60.27817 37993 ft 434 kts 232°
2026-05-07 19:53 15.49104 -60.32684 37992 ft 434 kts 232°
2026-05-07 19:54 15.45339 -60.37560 37999 ft 434 kts 232°
2026-05-07 19:54 15.41564 -60.42445 37990 ft 434 kts 232°
2026-05-07 19:55 15.37792 -60.47323 37991 ft 433 kts 232°
2026-05-07 19:55 15.34032 -60.52181 37990 ft 433 kts 232°
2026-05-07 19:56 15.30264 -60.57049 37986 ft 433 kts 232°
2026-05-07 19:56 15.26500 -60.61905 37991 ft 434 kts 232°
2026-05-07 19:57 15.22698 -60.66810 37989 ft 435 kts 232°
2026-05-07 19:57 15.18920 -60.71679 37988 ft 435 kts 232°
2026-05-07 19:58 15.15132 -60.76561 37988 ft 435 kts 232°
2026-05-07 19:58 15.11346 -60.81433 37989 ft 434 kts 232°
2026-05-07 19:59 15.07550 -60.86315 37986 ft 436 kts 232°
2026-05-07 19:59 15.03748 -60.91201 37985 ft 435 kts 232°
2026-05-07 20:00 14.99959 -60.96066 37985 ft 434 kts 232°
2026-05-07 20:00 14.96163 -61.00936 37988 ft 435 kts 232°
2026-05-07 20:01 14.92364 -61.05805 37987 ft 434 kts 232°
2026-05-07 20:01 14.88589 -61.10645 37992 ft 435 kts 232°
2026-05-07 20:02 14.84794 -61.15522 37986 ft 435 kts 232°
2026-05-07 20:02 14.81000 -61.20396 37989 ft 435 kts 232°
2026-05-07 20:03 14.77188 -61.25283 37985 ft 436 kts 232°
2026-05-07 20:03 14.73383 -61.30153 37983 ft 436 kts 232°
2026-05-07 20:04 14.69554 -61.35049 37984 ft 436 kts 232°
2026-05-07 20:04 14.65743 -61.39917 37986 ft 436 kts 232°
2026-05-07 20:05 14.61930 -61.44786 37981 ft 435 kts 232°
2026-05-07 20:05 14.58114 -61.49658 37982 ft 435 kts 232°
2026-05-07 20:06 14.54281 -61.54546 37980 ft 435 kts 232°
2026-05-07 20:06 14.50442 -61.59440 37982 ft 436 kts 232°
2026-05-07 20:07 14.46633 -61.64290 37981 ft 436 kts 232°
2026-05-07 20:07 14.42820 -61.69146 37975 ft 436 kts 232°
2026-05-07 20:08 14.38996 -61.74010 37975 ft 437 kts 232°
2026-05-07 20:08 14.35163 -61.78884 37974 ft 438 kts 232°
2026-05-07 20:09 14.31349 -61.83731 37974 ft 437 kts 232°
2026-05-07 20:10 14.25603 -61.91026 37972 ft 438 kts 232°
2026-05-07 20:10 14.21772 -61.95889 37967 ft 436 kts 232°
2026-05-07 20:11 14.17936 -62.00753 37968 ft 437 kts 232°
2026-05-07 20:11 14.14111 -62.05600 37968 ft 437 kts 232°
2026-05-07 20:12 14.10269 -62.10466 37968 ft 438 kts 232°
2026-05-07 20:12 14.06425 -62.15331 37967 ft 438 kts 232°
2026-05-07 20:13 14.02581 -62.20195 37968 ft 439 kts 232°
2026-05-07 20:13 13.98706 -62.25096 37966 ft 439 kts 232°
2026-05-07 20:14 13.94854 -62.29963 37964 ft 439 kts 232°
2026-05-07 20:14 13.90994 -62.34839 37963 ft 438 kts 232°
2026-05-07 20:15 13.87167 -62.39668 37962 ft 439 kts 232°
2026-05-07 20:15 13.83297 -62.44550 37964 ft 437 kts 232°
2026-05-07 20:16 13.79459 -62.49386 37960 ft 438 kts 232°
2026-05-07 20:16 13.75604 -62.54243 37959 ft 439 kts 232°
2026-05-07 20:17 13.71741 -62.59107 37960 ft 439 kts 232°
2026-05-07 20:17 13.67874 -62.63974 37960 ft 439 kts 232°
2026-05-07 20:18 13.64024 -62.68818 37957 ft 439 kts 232°
2026-05-07 20:18 13.60137 -62.73705 37957 ft 439 kts 231°
2026-05-07 20:19 13.56256 -62.78580 37958 ft 439 kts 231°
2026-05-07 20:19 13.52393 -62.83431 37950 ft 439 kts 231°
2026-05-07 20:20 13.48532 -62.88274 37952 ft 440 kts 231°
2026-05-07 20:20 13.44635 -62.93162 37955 ft 439 kts 231°
2026-05-07 20:21 13.40781 -62.97992 37953 ft 440 kts 231°
2026-05-07 20:21 13.36893 -63.02863 37946 ft 440 kts 231°
2026-05-07 20:22 13.33016 -63.07715 37947 ft 439 kts 232°
2026-05-07 20:22 13.29149 -63.12553 37946 ft 440 kts 232°
2026-05-07 20:23 13.25258 -63.17423 37950 ft 440 kts 231°
2026-05-07 20:23 13.21384 -63.22264 37946 ft 439 kts 231°
2026-05-07 20:24 13.17522 -63.27088 37945 ft 440 kts 231°
2026-05-07 20:24 13.13631 -63.31945 37943 ft 440 kts 231°
2026-05-07 20:25 13.09744 -63.36792 37941 ft 440 kts 231°
2026-05-07 20:25 13.05852 -63.41644 37944 ft 441 kts 231°
2026-05-07 20:26 13.01957 -63.46498 37937 ft 441 kts 231°
2026-05-07 20:26 12.98063 -63.51344 37942 ft 441 kts 231°
2026-05-07 20:27 12.94174 -63.56180 37944 ft 441 kts 231°
2026-05-07 20:27 12.90269 -63.61033 37941 ft 441 kts 231°
2026-05-07 20:28 12.86439 -63.65940 37942 ft 441 kts 234°
2026-05-07 20:28 12.82952 -63.71090 37941 ft 440 kts 236°
2026-05-07 20:29 12.79486 -63.76270 37942 ft 441 kts 236°
2026-05-07 20:29 12.76008 -63.81458 37939 ft 441 kts 236°
2026-05-07 20:30 12.72548 -63.86618 37939 ft 440 kts 236°
2026-05-07 20:30 12.69091 -63.91768 37937 ft 441 kts 236°
2026-05-07 20:31 12.65600 -63.96961 37933 ft 441 kts 236°
2026-05-07 20:31 12.62122 -64.02136 37936 ft 442 kts 236°
2026-05-07 20:32 12.58653 -64.07289 37937 ft 442 kts 236°
2026-05-07 20:32 12.55161 -64.12476 37923 ft 442 kts 236°
2026-05-07 20:33 12.51666 -64.17665 37925 ft 443 kts 236°
2026-05-07 20:33 12.48183 -64.22832 37920 ft 443 kts 236°
2026-05-07 20:34 12.44669 -64.28040 37920 ft 443 kts 236°
2026-05-07 20:34 12.41179 -64.33207 37920 ft 443 kts 236°
2026-05-07 20:35 12.37658 -64.38417 37916 ft 447 kts 236°
2026-05-07 20:35 12.34106 -64.43675 37913 ft 454 kts 236°
2026-05-07 20:36 12.30502 -64.48989 37906 ft 458 kts 236°
2026-05-07 20:36 12.26866 -64.54336 37904 ft 458 kts 236°
2026-05-07 20:37 12.23234 -64.59669 37914 ft 458 kts 236°
2026-05-07 20:37 12.19569 -64.65045 37903 ft 459 kts 236°
2026-05-07 20:38 12.15926 -64.70390 37899 ft 459 kts 236°
2026-05-07 20:38 12.12275 -64.75742 37905 ft 460 kts 236°
2026-05-07 20:39 12.08605 -64.81117 37899 ft 461 kts 236°
2026-05-07 20:39 12.04946 -64.86474 37909 ft 461 kts 236°
2026-05-07 20:40 12.01281 -64.91835 37904 ft 461 kts 236°
2026-05-07 20:40 11.97592 -64.97227 37919 ft 461 kts 236°
2026-05-07 20:41 11.93918 -65.02597 37922 ft 461 kts 236°
2026-05-07 20:41 11.90242 -65.07964 37928 ft 461 kts 236°
2026-05-07 20:42 11.86537 -65.13374 37925 ft 462 kts 237°
2026-05-07 20:42 11.82848 -65.18757 37921 ft 462 kts 236°
2026-05-07 20:43 11.79149 -65.24152 37923 ft 463 kts 236°
2026-05-07 20:43 11.75474 -65.29507 37922 ft 464 kts 236°
2026-05-07 20:44 11.71775 -65.34893 37916 ft 464 kts 236°
2026-05-07 20:44 11.68062 -65.40296 37916 ft 464 kts 237°
2026-05-07 20:45 11.64343 -65.45707 37914 ft 465 kts 237°
2026-05-07 20:45 11.60633 -65.51099 37912 ft 464 kts 237°
2026-05-07 20:46 11.56927 -65.56484 37768 ft 466 kts 237°
2026-05-07 20:46 11.55043 -65.59219 37017 ft 468 kts 237°
2026-05-07 20:46 11.53187 -65.61910 36290 ft 467 kts 237°
2026-05-07 20:46 11.51318 -65.64618 35548 ft 467 kts 237°
2026-05-07 20:47 11.49457 -65.67314 34817 ft 466 kts 237°
2026-05-07 20:47 11.47608 -65.69993 34104 ft 466 kts 237°
2026-05-07 20:47 11.45737 -65.72706 33384 ft 466 kts 237°
2026-05-07 20:47 11.43878 -65.75378 32685 ft 466 kts 236°
2026-05-07 20:48 11.41890 -65.78025 32003 ft 467 kts 234°
2026-05-07 20:48 11.39884 -65.80610 31306 ft 469 kts 233°
2026-05-07 20:48 11.37788 -65.83151 30576 ft 471 kts 231°
2026-05-07 20:48 11.35560 -65.85599 29856 ft 474 kts 228°
2026-05-07 20:49 11.33235 -65.87952 29141 ft 475 kts 226°
2026-05-07 20:49 11.30840 -65.90344 28382 ft 477 kts 226°
2026-05-07 20:49 11.28502 -65.92670 27917 ft 472 kts 226°
2026-05-07 20:49 11.26154 -65.95006 27445 ft 468 kts 226°
2026-05-07 20:50 11.23841 -65.97306 26914 ft 465 kts 226°
2026-05-07 20:50 11.21520 -65.99616 26437 ft 461 kts 226°
2026-05-07 20:50 11.19250 -66.01877 25902 ft 459 kts 226°
2026-05-07 20:50 11.16971 -66.04147 25419 ft 455 kts 226°
2026-05-07 20:51 11.14729 -66.06377 24971 ft 451 kts 226°
2026-05-07 20:51 11.12500 -66.08597 24532 ft 447 kts 226°
2026-05-07 20:51 11.10273 -66.10811 24097 ft 443 kts 226°
2026-05-07 20:51 11.08094 -66.12978 23675 ft 439 kts 226°
2026-05-07 20:52 11.05912 -66.15149 23255 ft 435 kts 226°
2026-05-07 20:52 11.03763 -66.17285 22839 ft 431 kts 226°
2026-05-07 20:52 11.01615 -66.19419 22429 ft 427 kts 226°
2026-05-07 20:52 10.99506 -66.21512 22042 ft 424 kts 226°
2026-05-07 20:53 10.97409 -66.23593 21653 ft 421 kts 226°
2026-05-07 20:53 10.95317 -66.25670 21259 ft 418 kts 226°
2026-05-07 20:53 10.93244 -66.27731 20848 ft 416 kts 225°
2026-05-07 20:53 10.91163 -66.29770 20429 ft 415 kts 225°
2026-05-07 20:54 10.89061 -66.31810 20004 ft 413 kts 225°
2026-05-07 20:54 10.86987 -66.33824 19579 ft 412 kts 225°
2026-05-07 20:54 10.84939 -66.35812 19152 ft 410 kts 225°
2026-05-07 20:54 10.83000 -66.37965 18712 ft 408 kts 236°
2026-05-07 20:55 10.81618 -66.40460 18273 ft 406 kts 249°
2026-05-07 20:55 10.80818 -66.43188 17821 ft 403 kts 261°
2026-05-07 20:55 10.80338 -66.45992 17375 ft 402 kts 262°
2026-05-07 20:55 10.79887 -66.48796 16947 ft 402 kts 262°
2026-05-07 20:56 10.79431 -66.51598 16498 ft 401 kts 262°
2026-05-07 20:56 10.78971 -66.54359 16072 ft 399 kts 262°
2026-05-07 20:56 10.78501 -66.57132 15676 ft 398 kts 262°
2026-05-07 20:56 10.78013 -66.59982 15255 ft 398 kts 261°
2026-05-07 20:57 10.77541 -66.62722 14843 ft 397 kts 261°
2026-05-07 20:57 10.77064 -66.65478 14432 ft 397 kts 261°
2026-05-07 20:57 10.76584 -66.68246 14010 ft 397 kts 261°
2026-05-07 20:57 10.76101 -66.71020 13548 ft 396 kts 261°
2026-05-07 20:58 10.75622 -66.73765 13137 ft 395 kts 261°
2026-05-07 20:58 10.75146 -66.76501 12707 ft 394 kts 261°
2026-05-07 20:58 10.74667 -66.79248 12287 ft 392 kts 261°
2026-05-07 20:58 10.74195 -66.81959 11881 ft 390 kts 260°
2026-05-07 20:59 10.73729 -66.84645 11333 ft 391 kts 260°
2026-05-07 20:59 10.73250 -66.87406 10565 ft 397 kts 259°
2026-05-07 20:59 10.72874 -66.90151 10104 ft 390 kts 264°
2026-05-07 20:59 10.72770 -66.92868 9844 ft 372 kts 269°
2026-05-07 21:00 10.72764 -66.95425 9682 ft 360 kts 270°
2026-05-07 21:00 10.72770 -66.97933 9236 ft 351 kts 269°
2026-05-07 21:00 10.72774 -67.00394 8867 ft 341 kts 269°
2026-05-07 21:00 10.72772 -67.02758 8495 ft 332 kts 269°
2026-05-07 21:01 10.72769 -67.05060 8154 ft 324 kts 269°
2026-05-07 21:01 10.72763 -67.07327 7906 ft 318 kts 269°
2026-05-07 21:01 10.72757 -67.09547 7643 ft 311 kts 269°
2026-05-07 21:01 10.72750 -67.11721 7264 ft 303 kts 269°
2026-05-07 21:02 10.72744 -67.13853 6982 ft 300 kts 269°
2026-05-07 21:02 10.72738 -67.16013 6668 ft 299 kts 269°
2026-05-07 21:02 10.72733 -67.18107 6337 ft 297 kts 269°
2026-05-07 21:02 10.72728 -67.20190 6015 ft 295 kts 269°
2026-05-07 21:03 10.72730 -67.22245 5859 ft 287 kts 270°
2026-05-07 21:03 10.72743 -67.24259 5887 ft 276 kts 270°
2026-05-07 21:03 10.72756 -67.26159 5912 ft 262 kts 269°
2026-05-07 21:03 10.72766 -67.27998 5932 ft 261 kts 270°
2026-05-07 21:04 10.72776 -67.29842 5917 ft 261 kts 270°
2026-05-07 21:04 10.72785 -67.31685 5941 ft 261 kts 270°
2026-05-07 21:04 10.72795 -67.33539 5944 ft 261 kts 269°
2026-05-07 21:04 10.72803 -67.35373 5942 ft 261 kts 267°
2026-05-07 21:05 10.72409 -67.37158 5924 ft 258 kts 240°
2026-05-07 21:05 10.71299 -67.38554 5931 ft 254 kts 215°
2026-05-07 21:05 10.69746 -67.39391 5945 ft 251 kts 193°
2026-05-07 21:05 10.68033 -67.39493 5930 ft 246 kts 165°
2026-05-07 21:06 10.66460 -67.38854 5936 ft 244 kts 145°
2026-05-07 21:06 10.65203 -67.37703 5938 ft 243 kts 126°
2026-05-07 21:06 10.64366 -67.36200 5955 ft 244 kts 114°
2026-05-07 21:06 10.63691 -67.34646 5960 ft 244 kts 113°
2026-05-07 21:07 10.63002 -67.33065 5941 ft 243 kts 114°
2026-05-07 21:07 10.62294 -67.31500 5740 ft 246 kts 115°
2026-05-07 21:07 10.61514 -67.29947 5354 ft 249 kts 116°
2026-05-07 21:07 10.60702 -67.28385 4998 ft 251 kts 116°
2026-05-07 21:08 10.59897 -67.26804 4638 ft 252 kts 112°
2026-05-07 21:08 10.59471 -67.25070 4272 ft 251 kts 94°
2026-05-07 21:08 10.59485 -67.23349 4033 ft 237 kts 85°
2026-05-07 21:08 10.59622 -67.21755 3952 ft 220 kts 85°
2026-05-07 21:09 10.59736 -67.20224 3757 ft 212 kts 86°
2026-05-07 21:09 10.59814 -67.18739 3448 ft 209 kts 87°
2026-05-07 21:09 10.59869 -67.17306 3156 ft 200 kts 88°
2026-05-07 21:09 10.59914 -67.15936 2944 ft 191 kts 88°
2026-05-07 21:10 10.59956 -67.14599 2705 ft 186 kts 88°
2026-05-07 21:10 10.59996 -67.13303 2467 ft 182 kts 88°
2026-05-07 21:10 10.60036 -67.12015 2247 ft 183 kts 88°
2026-05-07 21:10 10.60077 -67.10722 2025 ft 182 kts 88°
2026-05-07 21:11 10.60117 -67.09445 1799 ft 176 kts 88°
2026-05-07 21:11 10.60156 -67.08244 1577 ft 168 kts 88°
2026-05-07 21:11 10.60240 -67.05879 1169 ft 167 kts 88°
2026-05-07 21:12 10.60273 -67.04699 952 ft 166 kts 90°
2026-05-07 21:12 10.60299 -67.03536 756 ft 166 kts 89°
2026-05-07 21:12 10.60349 -67.02354 541 ft 165 kts 89°
2026-05-07 21:12 10.60387 -67.01204 365 ft 162 kts 90°
2026-05-07 21:13 10.60419 -67.00124 323 ft 132 kts 88°
2026-05-07 21:13 10.60441 -66.99379 322 ft 79 kts 88°
2026-05-07 21:13 10.60453 -66.98994 322 ft 36 kts 88°
2026-05-07 21:13 10.60459 -66.98780 322 ft 19 kts 89°
2026-05-07 21:14 10.60460 -66.98689 321 ft 7 kts 89°
2026-05-07 21:14 10.60443 -66.98662 322 ft 5 kts 166°
2026-05-07 21:14 10.60405 -66.98680 322 ft 8 kts 232°
2026-05-07 21:14 10.60367 -66.98739 322 ft 11 kts 238°
2026-05-07 21:15 10.60321 -66.98814 322 ft 13 kts 238°
2026-05-07 21:15 10.60287 -66.98913 322 ft 15 kts 264°
2026-05-07 21:15 10.60280 -66.99031 323 ft 17 kts 267°
2026-05-07 21:15 10.60277 -66.99159 323 ft 18 kts 269°
2026-05-07 21:16 10.60273 -66.99294 323 ft 19 kts 268°
2026-05-07 21:16 10.60269 -66.99434 323 ft 20 kts 268°
2026-05-07 21:16 10.60263 -66.99582 323 ft 21 kts 268°
2026-05-07 21:16 10.60257 -66.99738 323 ft 22 kts 269°
2026-05-07 21:17 10.60254 -66.99901 323 ft 23 kts 268°
2026-05-07 21:17 10.60248 -67.00072 323 ft 24 kts 268°
2026-05-07 21:17 10.60243 -67.00227 323 ft 17 kts 268°
2026-05-07 21:17 10.60237 -67.00294 323 ft 4 kts 242°
2026-05-07 21:18 10.60218 -67.00301 323 ft 4 kts 183°
2026-05-07 21:18 10.60173 -67.00300 323 ft 8 kts 179°
2026-05-07 21:18 10.60108 -67.00298 323 ft 8 kts 178°
2026-05-07 21:18 10.60042 -67.00297 324 ft 8 kts 178°
2026-05-07 21:19 10.59992 -67.00294 324 ft 6 kts 178°
2026-05-07 21:19 10.59952 -67.00289 324 ft 4 kts 168°
2026-05-07 21:19 10.59917 -67.00285 324 ft 5 kts 175°
2026-05-07 21:19 10.59880 -67.00282 324 ft 5 kts 176°
2026-05-07 21:20 10.59854 -67.00281 325 ft 1 kts 177°
2026-05-07 21:20 10.59851 -67.00280 325 ft 0 kts 176°